Regional Weather Roundup
Issued by NWS Little Rock, AR

Home | Current Version | Previous Version | Graphics & Text | Print | Product List | Glossary On
Versions: 1 2 3 4 5 6 7 8 9 10 11 12 13 14 15 16 17 18 19 20 21 22 23 24 25 26 27 28 29 30 31 32 33 34 35 36 37 38 39 40 41 42 43 44 45 46 47 48 49 50
072
ASUS44 KLZK 230612
RWRLZK

WEATHER ROUNDUP FOR ARKANSAS
NATIONAL WEATHER SERVICE LITTLE ROCK AR
100 AM CDT SUN JUL 23 2017

NOTE: "FAIR" INDICATES FEW OR NO CLOUDS BELOW 12,000 FEET WITH NO
SIGNIFICANT WEATHER AND/OR OBSTRUCTIONS TO VISIBILITY.

ARZ001-003-010-029-230700-
NORTHWEST ARKANSAS

CITY           SKY/WX    TMP DP  RH WIND       PRES   REMARKS
FAYETTEVILLE   CLEAR     74  73  97 S3        29.94S
6HR MIN TEMP:  74; 6HR MAX TEMP:  90;

FORT SMITH     CLEAR     83  73  72 S5        29.88F HX  89
6HR MIN TEMP:  83; 6HR MAX TEMP:  97;

HARRISON       CLEAR     75  71  87 S5        29.93F
6HR MIN TEMP:  73; 6HR MAX TEMP:  89;

BENTONVILLE    CLEAR     79  70  73 CALM      29.93F
6HR MIN TEMP:  79; 6HR MAX TEMP:  93;

ROGERS         CLEAR     81  72  74 SW8       29.93F HX  85
6HR MIN TEMP:  80; 6HR MAX TEMP:  93;

SILOAM SPGS    CLEAR     79  68  69 S7        29.92F
6HR MIN TEMP:  79; 6HR MAX TEMP:  93;

HIGHFILL       CLEAR     78  72  81 S6        29.92F
6HR MIN TEMP:  78; 6HR MAX TEMP:  94;

$$

ARZ004-005-016-230700-
NORTH CENTRAL ARKANSAS

CITY           SKY/WX    TMP DP  RH WIND       PRES   REMARKS
BATESVILLE     CLEAR     81  73  78 CALM      29.89F HX  85
6HR MIN TEMP:  81; 6HR MAX TEMP:  93;

FLIPPIN        CLEAR     82  70  65 SW5       29.88F HX  86
6HR MIN TEMP:  81; 6HR MAX TEMP:  95;

MTN HOME       CLEAR     76  73  91 SW3       29.90F
6HR MIN TEMP:  76; 6HR MAX TEMP:  90;

$$

ARZ040-041-230700-
WEST CENTRAL ARKANSAS

CITY           SKY/WX    TMP DP  RH WIND       PRES   REMARKS
MENA           CLEAR     77  75  94 CALM      29.94S
MOUNT IDA      CLEAR     76  73  91 CALM      29.90S
6HR MIN TEMP:  76; 6HR MAX TEMP:  92;

$$

ARZ009-017-025-026-028-230700-
NORTHEAST ARKANSAS

CITY           SKY/WX    TMP DP  RH WIND       PRES   REMARKS
CORNING        FAIR      81  79  94 SW8       29.88  HX  89
JONESBORO      CLEAR     83  77  82 SW7       29.87F HX  92
6HR MIN TEMP:  83; 6HR MAX TEMP:  93;

WALNUT RIDGE   CLEAR     82  73  74 SW6       29.88R HX  88
6HR MIN TEMP:  82; 6HR MAX TEMP:  93;

BLYTHEVILLE    CLEAR     81  77  88 SW5       29.89S HX  88
6HR MIN TEMP:  81; 6HR MAX TEMP:  93;

$$

ARZ022-023-033-042-044-230700-
CENTRAL ARKANSAS

CITY           SKY/WX    TMP DP  RH WIND       PRES   REMARKS
LITTLE ROCK    CLEAR     81  77  88 S5        29.89F HX  88
6HR MIN TEMP:  81; 6HR MAX TEMP:  92;

N LITTLE ROCK    N/A     82  76  80 SW6       29.87F HX  89
6HR MIN TEMP:  82; 6HR MAX TEMP:  93;

JACKSONVILLE   CLEAR     83  77  82 S7        29.87F HX  91
6HR MIN TEMP:  83; 6HR MAX TEMP:  94;

CONWAY           N/A     82  75  78 S6        29.86F HX  89
SEARCY         CLEAR     80  78  94 SW3       29.90F HX  88
6HR MIN TEMP:  78; 6HR MAX TEMP:  92;

HOT SPRINGS    CLEAR     82  76  81 CALM      29.91F HX  89
6HR MIN TEMP:  81; 6HR MAX TEMP:  93;

RUSSELLVILLE   CLEAR     79  74  84 CALM      29.88F
6HR MIN TEMP:  78; 6HR MAX TEMP:  94;

CLINTON        FAIR      77  75  94 CALM      29.90S FOG
$$

ARZ036-230700-
EAST ARKANSAS

CITY           SKY/WX    TMP DP  RH WIND       PRES   REMARKS
WEST MEMPHIS   PTCLDY    79  77  94 S6        29.88F
6HR MIN TEMP:  79; 6HR MAX TEMP:  91;

$$

ARZ050-053-066-070-073-230700-
SOUTHWEST ARKANSAS

CITY           SKY/WX    TMP DP  RH WIND       PRES   REMARKS
ARKADELPHIA    FAIR      79  75  87 CALM      29.91S
6HR MIN TEMP:  78; 6HR MAX TEMP:  93;

CAMDEN         PTCLDY    75  72  88 S5        29.92S
TEXARKANA      CLOUDY    80  74  81 S8        29.91S HX  85
6HR MIN TEMP:  80; 6HR MAX TEMP:  92;

EL DORADO      CLOUDY    76  73  91 S6        29.95R
6HR MIN TEMP:  76; 6HR MAX TEMP:  93; 6HR PCP: TRACE;

DE QUEEN       CLOUDY    78  78 100 CALM      29.88S FOG
6HR MIN TEMP:  77; 6HR MAX TEMP:  94;

$$

ARZ056-057-069-230700-
SOUTHEAST ARKANSAS

CITY           SKY/WX    TMP DP  RH WIND       PRES   REMARKS
PINE BLUFF     PTCLDY    77  73  87 S8        29.91S
6HR MIN TEMP:  77; 6HR MAX TEMP:  92;

STUTTGART      CLEAR     81  64  57 S13       29.91S
6HR MIN TEMP:  81; 6HR MAX TEMP:  93;

MONTICELLO     PTCLDY    77  72  84 SW5       29.93F
6HR MIN TEMP:  77; 6HR MAX TEMP:  91;


$$






USA.gov is the U.S. government's official web portal to all federal, state and local government web resources and services.